Home   Weather   Yokosuka   Past weeks

Flag for Japan Past Weather in Yokosuka, Japan — Yesterday and Last 2 Weeks

63 °F

Passing clouds.

Feels Like: 63 °F
Forecast: 57 / 62 °F
Wind: 7 mph from Northeast

Location: Tokyo International Airport

Current Time: Oct 28, 2016 at 12:02:58 AM

Latest Report: Oct 27, 2016 at 11:30 PM

Visibility: N/A

Pressure: 30.18 "Hg

Humidity: 73%

Dew Point: 54 °F

Location of YokosukaLocation

Past Weather in Yokosuka — Graph


Yokosuka Temperature Yesterday

Maximum temperature yesterday: 73 °F (at 1:30 PM)
Minimum temperature yesterday: 63 °F (at 10:00 PM)
Average temperature yesterday: 69 °F

High & Low Weather Summary for the Past Weeks

High81 °F (Oct 20, 2:30 PM)100% (Oct 17, 9:00 AM)30.39 "Hg (Oct 17, 9:00 AM)
Low54 °F (Oct 25, 4:30 AM)32% (Oct 20, 6:00 PM)29.74 "Hg (Oct 23, 3:00 AM)
Average66 °F69%30.06 "Hg
* Reported Oct 12 11:00 PM — Oct 27 11:00 PM, Yokosuka, Weather by CustomWeather, © 2016

Note: Actual official high and low records may vary slightly from our data, if they occured in-between our weather recording intervals... More about our weather records


Yokosuka Weather History for the Previous 24 Hours

Scroll right to see more
Time TempWeatherWind HumidityBarometerVisibility
11:00 PM
Thu, Oct 27
63 °FPassing clouds.1 mph64%30.15 "HgN/A
10:30 PM64 °FPassing clouds.1 mph60%30.15 "HgN/A
10:00 PM63 °FPassing clouds.5 mph73%30.18 "HgN/A
9:30 PM64 °FPassing clouds.5 mph68%30.15 "HgN/A
9:00 PM64 °FPassing clouds.6 mph64%30.15 "HgN/A
8:30 PM64 °FPassing clouds.8 mph68%30.15 "HgN/A
8:00 PM64 °FPassing clouds.9 mph68%30.18 "HgN/A
7:30 PM64 °FPassing clouds.9 mph68%30.15 "HgN/A
7:00 PM64 °FPassing clouds.9 mph68%30.15 "HgN/A
6:30 PM66 °FPassing clouds.10 mph64%30.15 "HgN/A
6:00 PM66 °FPassing clouds.13 mph68%30.15 "HgN/A
5:30 PM68 °FPassing clouds.12 mph56%30.12 "HgN/A
5:00 PM72 °FPassing clouds.8 mph41%30.12 "HgN/A
4:30 PM72 °FPartly sunny.13 mph36%30.09 "HgN/A
4:00 PM72 °FPartly sunny.8 mph38%30.09 "HgN/A
3:30 PM72 °FPartly sunny.14 mph33%30.09 "HgN/A
3:00 PM72 °FPartly sunny.12 mph36%30.07 "HgN/A
2:30 PM72 °FScattered clouds.12 mph38%30.07 "HgN/A
2:00 PM73 °FScattered clouds.14 mph33%30.07 "HgN/A
1:30 PM73 °FScattered clouds.13 mph36%30.04 "HgN/A
1:00 PM72 °FPassing clouds.14 mph38%30.07 "HgN/A
12:30 PM72 °FPartly sunny.16 mph44%30.07 "HgN/A
12:00 PM70 °FScattered clouds.16 mph50%30.07 "HgN/A
11:30 AM72 °FPassing clouds.16 mph47%30.07 "HgN/A
11:00 AM72 °FPassing clouds.20 mph47%30.07 "HgN/A
10:30 AM72 °FPassing clouds.18 mph44%30.07 "HgN/A
10:00 AM72 °FPassing clouds.18 mph47%30.07 "HgN/A
9:30 AM70 °FPassing clouds.18 mph50%30.07 "HgN/A
9:00 AM70 °FPassing clouds.15 mph50%30.07 "HgN/A
8:30 AM70 °FPassing clouds.16 mph50%30.07 "HgN/A
8:00 AM68 °FPassing clouds.14 mph56%30.07 "HgN/A
7:50 AM70 °FPassing clouds.17 mph50%30.07 "HgN/A
7:30 AM68 °FPassing clouds.15 mph53%30.04 "HgN/A
7:00 AM68 °FPassing clouds.15 mph56%30.04 "HgN/A
6:30 AM66 °FPassing clouds.15 mph60%30.01 "HgN/A
6:00 AM68 °FSunny.20 mph56%30.01 "Hg10 mi
5:30 AM68 °FClear.17 mph56%29.98 "Hg10 mi
5:00 AM68 °FClear.18 mph60%29.98 "Hg10 mi
4:30 AM68 °FClear.21 mph56%29.95 "Hg10 mi
4:00 AM70 °FClear.24 mph53%29.92 "Hg10 mi
3:49 AM70 °FPassing clouds.22 mph57%29.92 "HgN/A
3:30 AM70 °FPassing clouds.17 mph60%29.92 "HgN/A
3:00 AM68 °FPartly cloudy.9 mph83%29.92 "HgN/A
2:30 AM68 °FPartly cloudy.9 mph83%29.92 "HgN/A
2:00 AM68 °FPassing clouds.14 mph83%29.92 "HgN/A
1:30 AM70 °FPassing clouds.15 mph78%29.92 "HgN/A
1:00 AM70 °FPassing clouds.15 mph78%29.89 "HgN/A
12:30 AM70 °FLight rain. Partly cloudy.14 mph83%29.92 "HgN/A
12:00 AM70 °FPartly cloudy.8 mph83%29.92 "Hg5 mi
Weather by CustomWeather, © 2016

See weather overviewHow to use our weather pages